Regional Weather Roundup
Issued by NWS

Home | Current Version | Previous Version | Graphics & Text | Print | Product List | Glossary On
Versions: 1 2 3 4 5 6 7 8 9 10 11 12 13 14 15 16 17 18 19 20 21 22 23 24 25 26 27 28 29 30 31 32 33 34 35 36 37 38 39 40 41 42 43 44 45 46 47 48 49 50
000
ASUS43 KOAX 250010
RWRNE

WEATHER ROUNDUP FOR NEBRASKA
NATIONAL WEATHER SERVICE OMAHA NE
700 PM CDT SUN SEP 24 2017

NOTES: SATELLITE DATA IS BEING USED TO AUGMENT CLOUD COVER ABOVE
       12000 FEET.
       "FAIR" INDICATES FEW OR NO CLOUDS BELOW 12,000 FEET WITH NO
       SIGNIFICANT WEATHER AND/OR OBSTRUCTIONS TO VISIBILITY.


NEZ001>004-019>022-054>056-250100-
NEBRASKA PANHANDLE

CITY           SKY/WX    TMP DP  RH WIND       PRES   REMARKS
SCOTTSBLUFF    CLOUDY    52  44  74 NE10      30.03R
6HR MIN TEMP:  52; 6HR MAX TEMP:  55;

ALLIANCE       CLOUDY    49  43  80 NE12      30.03S
6HR MIN TEMP:  49; 6HR MAX TEMP:  52;

CHADRON        CLOUDY    50  42  74 NE12      30.06R
6HR MIN TEMP:  50; 6HR MAX TEMP:  54;

GORDON         CLOUDY    48  44  85 NE12      30.05S
6HR MIN TEMP:  47; 6HR MAX TEMP:  51;

KIMBALL        CLOUDY    49  47  92 E13       30.02S
SIDNEY         CLOUDY    51  46  83 NE12      30.01R
6HR MIN TEMP:  50; 6HR MAX TEMP:  53; 6HR PCP: TRACE;

$$

NEZ057>060-069>072-079>082-250100-
SOUTHWEST NEBRASKA

CITY           SKY/WX    TMP DP  RH WIND       PRES   REMARKS
NORTH PLATTE   RAIN      54  52  93 NE8       30.00R
6HR MIN TEMP:  54; 6HR MAX TEMP:  57; 6HR PCP:  0.07;

IMPERIAL       CLOUDY    53  50  89 NE12      29.98S
6HR MIN TEMP:  52; 6HR MAX TEMP:  54; 6HR PCP:  0.04;

LEXINGTON      RAIN      57  54  89 NE7       29.98R
MCCOOK         LGT RAIN  56  56 100 N8        29.94F FOG
6HR MIN TEMP:  55; 6HR MAX TEMP:  57; 6HR PCP:  0.14;

OGALLALA       CLOUDY    55  49  82 NE13      29.99F
$$

NEZ005>010-023>029-035>040-094-250100-
NORTH CENTRAL NEBRASKA

CITY           SKY/WX    TMP DP  RH WIND       PRES   REMARKS
VALENTINE      CLOUDY    54  47  77 N10       30.04R
6HR MIN TEMP:  52; 6HR MAX TEMP:  57;

AINSWORTH      CLOUDY    53  49  89 N8        30.03S
BROKEN BOW     CLOUDY    56  52  86 N9        29.98R
6HR MIN TEMP:  54; 6HR MAX TEMP:  58; 6HR PCP:  0.01;

O`NEILL        CLOUDY    55  54  94 N8        30.02R
ORD            LGT RAIN  57  52  83 N9        29.97S
6HR MIN TEMP:  55; 6HR MAX TEMP:  58; 6HR PCP:  0.05;

THEDFORD       CLOUDY    54  50  86 N10       30.03R
$$

NEZ041-046>049-061>064-073>077-083>087-250100-
SOUTH CENTRAL NEBRASKA

CITY           SKY/WX    TMP DP  RH WIND       PRES   REMARKS
GRAND ISLAND   CLOUDY    58  57  97 N13       29.96R
6HR MIN TEMP:  58; 6HR MAX TEMP:  76; 6HR PCP:  0.02;

AURORA         RAIN      60  57  89 N10       29.95S
HASTINGS       RAIN      59  56  89 N12       29.96R FOG
6HR MIN TEMP:  59; 6HR MAX TEMP:  76; 6HR PCP:  0.05;

HEBRON         CLOUDY    74  64  69 NW5       29.90R
HOLDREGE       LGT RAIN  57  55  94 N10       29.95S
KEARNEY        CLOUDY    57  55  93 N9        29.96S
YORK           HVY RAIN  63  61  94 N9        29.95R
$$

NEZ011>018-030>034-042>045-250100-
NORTHEAST NEBRASKA

CITY           SKY/WX    TMP DP  RH WIND       PRES   REMARKS
NORFOLK        LGT RAIN  58  56  93 N9        29.98R
6HR MIN TEMP:  58; 6HR MAX TEMP:  79; 6HR PCP: TRACE;

ALBION         DRIZZLE   58  56  91 N8        29.98R
BLAIR          CLOUDY    74  66  75 W9G22     29.90R
COLUMBUS       LGT RAIN  62  57  83 N9        29.96R
FREMONT        CLOUDY    71  63  75 NW8       29.92R
TEKAMAH        CLOUDY    71  63  75 N8        29.90R
6HR MIN TEMP:  71; 6HR MAX TEMP:  90; 6HR PCP: TRACE;

WAYNE          CLOUDY    60  58  91 N10       29.96S
$$

NEZ050>053-065>068-078-088>093-250100-
SOUTHEAST NEBRASKA

CITY           SKY/WX    TMP DP  RH WIND       PRES   REMARKS
LINCOLN        CLOUDY    77  64  64 NW17      29.89R
6HR MIN TEMP:  77; 6HR MAX TEMP:  88; 6HR PCP: TRACE;

OMAHA EPPLEY   CLOUDY    76  69  79 CALM      29.87S
6HR MIN TEMP:  73; 6HR MAX TEMP:  89; 6HR PCP:  0.20;

BEATRICE       MOCLDY    82  64  53 SE3       29.86F
FALLS CITY     MOCLDY    84  63  49 S8        29.87R
6HR MIN TEMP:  83; 6HR MAX TEMP:  90;

NEBRASKA CITY  CLOUDY    78  68  71 S5        29.88R
PLATTSMOUTH    MOCLDY    78  65  64 E3        29.88S
$$

NEZ044-045-051>053-067-250100-
OMAHA AREA

CITY           SKY/WX    TMP DP  RH WIND       PRES   REMARKS
OMAHA EPPLEY   CLOUDY    76  69  79 CALM      29.87S
6HR MIN TEMP:  73; 6HR MAX TEMP:  89; 6HR PCP:  0.20;

BLAIR          CLOUDY    74  66  75 W9G22     29.90R
FREMONT        CLOUDY    71  63  75 NW8       29.92R
MILLARD        CLOUDY    80  68  66 E5        29.87S
OFFUTT AFB     CLOUDY    76  69  79 CALM      29.87S
PLATTSMOUTH    MOCLDY    78  65  64 E3        29.88S
WAHOO          FAIR      71  63  74 N15G22    29.91R
$$




USA.gov is the U.S. government's official web portal to all federal, state and local government web resources and services.